Baraboo, WI

8:20 AM CST on December 08, 2019 (GMT -0600)
Baraboo Wisconsin Dells

Weather History for KDLL - October, 2019

Change the Weather History Date:

Monday, October 14, 2019

  Actual Average Record
Temperature  
Mean Temperature 39 °F -  
Max Temperature 49 °F 61 °F 83 °F (1958)
Min Temperature 29 °F 37 °F 17 °F (1979)
Degree Days  
Heating Degree Days 26    
Moisture  
Dew Point 31 °F    
Average Humidity 78    
Maximum Humidity 99    
Minimum Humidity 47    
Precipitation  
Precipitation 0.00 in - - ()
Sea Level Pressure  
Sea Level Pressure 30.00 in    
Wind  
Wind Speed 4 mph ()    
Max Wind Speed 10 mph    
Max Gust Speed 16 mph    
Visibility 10.0 miles    
Events      
Averages and records for this station are not official NWS values.
T = Trace of Precipitation, MM = Missing Value Source: Averaged Metar Reports

Daily Weather History Graph

Daily Weather History Graph

Search for Another Location

Airport or City:

Astronomy

Oct. 14, 2019 Rise Set
Actual Time 7:11 AM CDT 6:17 PM CDT
Civil Twilight 6:42 AM CDT 6:46 PM CDT
Nautical Twilight 6:09 AM CDT 7:19 PM CDT
Astronomical Twilight 5:36 AM CDT 7:52 PM CDT
Moon 7:07 PM CDT (10/14) 7:42 AM CDT (10/14)
Length of Visible Light 12h 03m
Length of Day
11h 06m
Full, 99% of the Moon is Illuminated
Oct 14
Full
Oct 21
Last Quarter
Oct 27
New
Nov 4
First Quarter
Nov 12
Full

Hourly Weather History & Observations

Time (CDT) Temp. Windchill Dew Point Humidity Pressure Visibility Wind Dir Wind Speed Gust Speed Precip Events Conditions
12:15 AM 32.4 °F 26.9 °F 30.0 °F 91% 29.92 in 10.0 mi WSW 5.8 mph - N/A   Clear
12:35 AM 32.0 °F 26.4 °F 29.8 °F 92% 29.92 in 10.0 mi WSW 5.8 mph - N/A   Clear
12:55 AM 32.2 °F 25.8 °F 30.0 °F 92% 29.92 in 10.0 mi West 6.9 mph - N/A   Clear
1:15 AM 32.4 °F 26.9 °F 30.0 °F 91% 29.93 in 10.0 mi WSW 5.8 mph - N/A   Clear
1:35 AM 32.0 °F 27.5 °F 30.0 °F 92% 29.93 in 10.0 mi WSW 4.6 mph - N/A   Clear
1:55 AM 32.0 °F 28.7 °F 29.8 °F 92% 29.94 in 10.0 mi WSW 3.5 mph - N/A   Clear
2:15 AM 32.0 °F 28.7 °F 30.0 °F 92% 29.95 in 10.0 mi West 3.5 mph - N/A   Clear
2:35 AM 32.0 °F 28.7 °F 29.8 °F 92% 29.95 in 10.0 mi West 3.5 mph - N/A   Clear
2:55 AM 31.8 °F 28.5 °F 29.8 °F 92% 29.95 in 10.0 mi WSW 3.5 mph - N/A   Clear
3:15 AM 32.0 °F 27.5 °F 30.0 °F 92% 29.95 in 10.0 mi West 4.6 mph - N/A   Clear
3:35 AM 30.7 °F - 29.3 °F 94% 29.95 in 10.0 mi Calm Calm - N/A   Clear
3:55 AM 30.9 °F 26.2 °F 29.8 °F 96% 29.95 in 10.0 mi West 4.6 mph - N/A   Clear
4:15 AM 31.1 °F 27.7 °F 30.0 °F 96% 29.95 in 10.0 mi West 3.5 mph - N/A   Clear
4:35 AM 30.9 °F 27.5 °F 29.5 °F 94% 29.95 in 10.0 mi SSW 3.5 mph - N/A   Mostly Cloudy
4:55 AM 29.8 °F 26.3 °F 29.1 °F 97% 29.96 in 10.0 mi SSW 3.5 mph - N/A   Mostly Cloudy
5:15 AM 29.8 °F 26.3 °F 29.3 °F 98% 29.97 in 10.0 mi SW 3.5 mph - N/A   Clear
5:35 AM 30.0 °F - 29.5 °F 98% 29.97 in 10.0 mi Calm Calm - N/A   Clear
5:55 AM 29.5 °F - 28.8 °F 97% 29.98 in 10.0 mi Calm Calm - N/A   Clear
6:15 AM 29.3 °F 25.6 °F 29.1 °F 99% 29.99 in 10.0 mi WSW 3.5 mph - N/A   Scattered Clouds
6:35 AM 30.2 °F 26.7 °F 30.0 °F 99% 29.99 in 10.0 mi WSW 3.5 mph - N/A   Overcast
6:55 AM 31.5 °F 26.8 °F 30.7 °F 97% 30.00 in 10.0 mi WSW 4.6 mph - N/A   Overcast
7:15 AM 31.8 °F 26.2 °F 30.9 °F 96% 30.00 in 10.0 mi WSW 5.8 mph - N/A   Overcast
7:35 AM 31.6 °F 27.0 °F 30.6 °F 96% 30.01 in 10.0 mi WSW 4.6 mph - N/A   Mostly Cloudy
7:55 AM 32.0 °F 26.4 °F 31.3 °F 97% 30.03 in 10.0 mi WSW 5.8 mph - N/A   Mostly Cloudy
8:15 AM 32.7 °F 26.4 °F 31.8 °F 96% 30.03 in 10.0 mi WSW 6.9 mph - N/A   Overcast
8:35 AM 33.3 °F 27.9 °F 32.0 °F 95% 30.04 in 10.0 mi WSW 5.8 mph - N/A   Overcast
8:55 AM 34.7 °F 29.6 °F 32.4 °F 91% 30.04 in 10.0 mi West 5.8 mph - N/A   Mostly Cloudy
9:15 AM 34.3 °F 28.4 °F 32.0 °F 91% 30.04 in 10.0 mi West 6.9 mph - N/A   Overcast
9:35 AM 35.2 °F 29.5 °F 32.4 °F 89% 30.05 in 10.0 mi West 6.9 mph - N/A   Mostly Cloudy
9:55 AM 37.2 °F 31.9 °F 33.3 °F 86% 30.05 in 10.0 mi West 6.9 mph - N/A   Scattered Clouds
10:15 AM 38.3 °F 33.2 °F 32.2 °F 79% 30.05 in 10.0 mi West 6.9 mph - N/A   Overcast
10:35 AM 38.8 °F 33.8 °F 32.0 °F 76% 30.05 in 10.0 mi WNW 6.9 mph - N/A   Overcast
10:55 AM 39.9 °F 35.1 °F 32.0 °F 73% 30.06 in 10.0 mi WSW 6.9 mph - N/A   Scattered Clouds
11:15 AM 41.5 °F 37.1 °F 31.8 °F 68% 30.06 in 10.0 mi WSW 6.9 mph - N/A   Clear
11:35 AM 42.6 °F 37.2 °F 28.9 °F 58% 30.06 in 10.0 mi West 9.2 mph - N/A   Clear
11:55 AM 42.8 °F 40.1 °F 29.1 °F 58% 30.05 in 10.0 mi West 4.6 mph - N/A   Clear
12:15 PM 43.9 °F 38.3 °F 28.6 °F 55% 30.05 in 10.0 mi West 10.4 mph 16.1 mph N/A   Clear
12:35 PM 44.2 °F 41.0 °F 28.8 °F 55% 30.05 in 10.0 mi WSW 5.8 mph - N/A   Clear
12:55 PM 45.5 °F 40.8 °F 29.1 °F 53% 30.05 in 10.0 mi WSW 9.2 mph - N/A   Clear
1:15 PM 45.7 °F 42.7 °F 28.4 °F 51% 30.04 in 10.0 mi WNW 5.8 mph - N/A   Clear
1:35 PM 46.6 °F - 29.5 °F 51% 30.04 in 10.0 mi WSW 6.9 mph - N/A   Clear
1:55 PM 46.8 °F - 29.3 °F 51% 30.03 in 10.0 mi SW 8.1 mph - N/A   Clear
2:15 PM 47.5 °F - 28.9 °F 49% 30.02 in 10.0 mi WNW 3.5 mph - N/A   Clear
2:35 PM 48.0 °F - 29.1 °F 48% 30.02 in 10.0 mi SW 3.5 mph - N/A   Clear
2:55 PM 48.2 °F - 29.3 °F 48% 30.01 in 10.0 mi SSW 4.6 mph - N/A   Clear
3:15 PM 48.7 °F - 29.7 °F 48% 30.01 in 10.0 mi West 6.9 mph - N/A   Clear
3:35 PM 48.4 °F - 29.5 °F 48% 30.00 in 10.0 mi WSW 5.8 mph - N/A   Clear
3:55 PM 48.9 °F - 29.5 °F 47% 30.00 in 10.0 mi SSW 6.9 mph - N/A   Clear
4:15 PM 49.1 °F - 30.0 °F 48% 30.00 in 10.0 mi SW 9.2 mph - N/A   Clear
4:35 PM 49.5 °F - 30.7 °F 49% 30.00 in 10.0 mi SW 6.9 mph - N/A   Clear
4:55 PM 48.6 °F - 30.9 °F 51% 29.99 in 10.0 mi SW 4.6 mph - N/A   Clear
5:15 PM 48.6 °F - 30.2 °F 49% 29.99 in 10.0 mi SW 9.2 mph - N/A   Clear
5:35 PM 47.5 °F - 30.2 °F 51% 30.00 in 10.0 mi WSW 5.8 mph - N/A   Clear
5:55 PM 45.7 °F 43.4 °F 31.1 °F 57% 29.99 in 10.0 mi SW 4.6 mph - N/A   Clear
6:15 PM 44.4 °F 42.0 °F 31.6 °F 61% 29.99 in 10.0 mi SSW 4.6 mph - N/A   Clear
6:35 PM 42.1 °F 39.2 °F 32.0 °F 67% 29.99 in 10.0 mi South 4.6 mph - N/A   Clear
6:55 PM 41.5 °F 39.6 °F 32.0 °F 69% 29.99 in 10.0 mi SSW 3.5 mph - N/A   Clear
7:15 PM 39.6 °F - 32.0 °F 74% 29.99 in 10.0 mi Calm Calm - N/A   Clear
7:35 PM 37.0 °F - 32.2 °F 83% 29.99 in 10.0 mi Calm Calm - N/A   Clear
7:55 PM 37.0 °F - 32.4 °F 83% 30.00 in 10.0 mi Calm Calm - N/A   Clear
8:15 PM 35.8 °F - 32.2 °F 87% 29.99 in 10.0 mi Calm Calm - N/A   Clear
8:35 PM 35.8 °F - 32.2 °F 87% 29.99 in 10.0 mi Calm Calm - N/A   Clear
8:55 PM 34.3 °F 31.4 °F 32.0 °F 91% 29.99 in 10.0 mi SE 3.5 mph - N/A   Clear
9:35 PM 34.7 °F - 32.0 °F 90% 29.99 in 10.0 mi Calm Calm - N/A   Clear
9:55 PM 34.3 °F 31.4 °F 32.0 °F 91% 29.99 in 10.0 mi SE 3.5 mph - N/A   Clear
10:15 PM 34.7 °F - 32.2 °F 91% 29.99 in 10.0 mi Calm Calm - N/A   Clear
10:35 PM 35.1 °F - 33.1 °F 92% 29.99 in 10.0 mi Calm Calm - N/A   Clear
10:55 PM 35.4 °F - 32.0 °F 87% 30.00 in 10.0 mi Calm Calm - N/A   Clear
11:15 PM 34.5 °F - 32.2 °F 91% 29.99 in 10.0 mi Calm Calm - N/A   Clear
11:35 PM 35.1 °F - 32.9 °F 92% 29.99 in 10.0 mi Calm Calm - N/A   Clear
11:55 PM 34.5 °F - 32.4 °F 92% 29.99 in 10.0 mi Calm Calm - N/A   Clear